Regional Weather Roundup
Issued by NWS

Home | Current Version | Previous Version | Text Only | Print | Product List | Glossary Off
Versions: 1 2 3 4 5 6 7 8 9 10 11 12 13 14 15 16 17 18 19 20 21 22 23 24 25 26 27 28 29 30 31 32 33 34 35 36 37 38 39 40 41 42 43 44 45 46 47 48 49 50

596
ASUS43 KMPX 281001
RWRMN
WEATHER ROUNDUP FOR MINNESOTA
NATIONAL WEATHER SERVICE TWIN CITIES/CHANHASSEN MN
500 AM CDT SAT MAY 28 2016


NOTE: "FAIR" INDICATES FEW OR NO CLOUDS BELOW 12,000 FEET WITH NO
SIGNIFICANT WEATHER AND/OR OBSTRUCTIONS TO VISIBILITY. N/A MEANS
CURRENT SKY AND/OR WEATHER CONDITIONS ARE NOT AVAILABLE.

MNZ060>063-068>070-281100-
   Twin Cities Metro

CITY           SKY/WX    TMP DP  RH WIND       PRES   REMARKS
TWIN CITIES    CLOUDY    62  59  90 N5        29.75F
ST PAUL        CLOUDY    61  60  97 NW8       29.76S
CRYSTAL        CLOUDY    60  58  92 N5        29.75S FOG
BLAINE         FOG       61  61 100 N6        29.76F VSB 3/4
EDEN PRAIRIE   CLOUDY    62  58  86 N5        29.74F FOG
SOUTH ST PAUL  CLOUDY    63  61  94 N3        29.75S FOG
LAKE ELMO      CLOUDY    61  61 100 CALM      29.77R FOG
$$
MNZ001>005-007-008-013>017-022>024-027-028-281100-
   Northwest Minnesota

CITY           SKY/WX    TMP DP  RH WIND       PRES   REMARKS
BEMIDJI        CLOUDY    55  54  97 N5        29.83S
HALLOCK        MOCLDY    61  57  88 E7        29.83F
ROSEAU         MOCLDY    55  52  88 NE6       29.85S
WARROAD        CLOUDY    55  52  88 N3        29.86S
THIEF RVR FALL CLOUDY    57  54  88 CALM      29.86R
CROOKSTON      CLOUDY    59  57  94 CALM      29.84S
FOSSTON        CLOUDY    54  52  94 CALM      29.83F
DETROIT LAKES  CLOUDY    55  54  94 NE5       29.83R
MOORHEAD       CLOUDY    57  55  94 NE5       29.81F
PARK RAPIDS    CLOUDY    58  53  84 NE5       29.80S
MAHNOMEN       PTSUNNY   53  52  96 NE3       29.82S
$$
MNZ006-009>011-018-025>026-281100-
   North Central Minnesota

CITY           SKY/WX    TMP DP  RH WIND       PRES   REMARKS
BAUDETTE       CLOUDY    58  53  84 NE3       29.84S
FLAG ISLAND    MOCLDY    59  57  94 NE7       29.85S
INTL FALLS     CLOUDY    57  54  89 CALM      29.84S
WASKISH        LGT RAIN  57  54  88 CALM      29.85R
BIG FORK       LGT RAIN  55  54  94 NE6       29.82F
LONGVILLE      CLOUDY    55  55 100 CALM      29.79F
GRAND RAPIDS   CLOUDY    55  53  93 VRB6      29.80F
CRANE LAKE     RAIN      54  54 100 N5        29.84S
ORR            RAIN      55  52  88 CALM      29.79S
COOK           DRIZZLE   55  54  94 N5        29.81S
WALKER         CLOUDY    56  53  88 NE5       29.80F
$$
MNZ012-019>021-037-281100-
   Northeast Minnesota

CITY           SKY/WX    TMP DP  RH WIND       PRES   REMARKS
DULUTH         DRIZZLE   50  49  96 S6        29.78R FOG
ELY            DRIZZLE   55  54  94 NE6       29.79F
HIBBING        CLOUDY    53  53 100 N6        29.78F FOG
EVELETH        CLOUDY    57  55  94 CALM      29.79S FOG
DULUTH HARBOR  CLOUDY    45  43  93 CALM      29.81R FOG
TWO HARBORS    CLOUDY    55  50  82 E9        29.76R HAZE
SILVER BAY     CLOUDY    54  54 100 NE8       29.76S FOG
GRAND MARAIS     N/A     50  49  96 NE9       29.77F
G MARAIS ARPRT RAIN      55  52  88 N8        29.81S
$$
MNZ029>031-032-039>041-046>048-054>057-064-281100-
   West Central Minnesota

CITY           SKY/WX    TMP DP  RH WIND       PRES   REMARKS
FERGUS FALLS   CLOUDY    57  57 100 NE3       29.77R
WHEATON        CLOUDY    59  57  94 N6        29.79S
MORRIS         CLOUDY    57  55  94 N8        29.76S
ALEXANDRIA     CLOUDY    58  55  90 NE5       29.79S
ELBOW LAKE     FAIR      58  55  91 NE5       29.79S
WADENA         CLOUDY    55  54  94 CALM      29.80R
GLENWOOD       CLOUDY    57  55  94 NE8       29.79R
APPLETON       CLOUDY    59  55  88 E5        29.76R
ORTONVILLE     CLOUDY    59  55  88 CALM      29.76S
MADISON        MOCLDY    61  57  88 E6        29.76R
WILLMAR        CLOUDY    61  57  88 N8        29.78S
$$
MNZ033>034-036-042>043-049>051-058-059-281100-
   Central Minnesota

CITY           SKY/WX    TMP DP  RH WIND       PRES   REMARKS
ST CLOUD       CLOUDY    57  56  96 N5        29.78R
SAUK CENTRE    CLOUDY    57  55  92 N5        29.79R
PAYNESVILLE    CLOUDY    59  58  97 N7        29.78S
AITKIN         CLOUDY    57  54  88 N3        29.78R
PINE RIVER     CLOUDY    55  55 100 N5        29.83S
BRAINERD       CLOUDY    56  55  97 NE6       29.79S FOG
STAPLES        CLOUDY    55  55 100 N3        29.80R FOG
LONG PRAIRIE   CLOUDY    55  54  94 NE5       29.80R FOG
LITTLE FALLS   CLOUDY    55  54  94 CALM      29.80R
LITCHFIELD     CLOUDY    61  59  94 N6        29.77S
BUFFALO        CLOUDY    57  56  94 N3        29.78F FOG
MAPLE LAKE     CLOUDY    59  58  98 N5        29.78S FOG
HUTCHINSON     CLOUDY    60  59  96 N5        29.77S FOG
$$
MNZ037-044-045-052-053-281100-
   East Central Minnesota

CITY           SKY/WX    TMP DP  RH WIND       PRES   REMARKS
PRINCETON        N/A     57  55  94 N3        29.78S
MORA           CLOUDY    54  52  94 CALM      29.80S
CAMBRIDGE      CLOUDY    57  52  82 NW3       29.75F HAZE
RUSH CITY      CLOUDY    55  54  95 N6        29.78R
MOOSE LAKE     CLOUDY    50  50 100 CALM      29.78R FOG
HINCKLEY       CLOUDY    50  50 100 N3        29.79S FOG
CLOQUET        FOG       50  48  93 CALM      29.78R VSB 1
MCGREGOR       CLOUDY    55  54  94 N3        29.79R
$$
MNZ071>073-080-081-089-090-097-098-281100-
   Southwest Minnesota

CITY           SKY/WX    TMP DP  RH WIND       PRES   REMARKS
MONTEVIDEO     CLOUDY    61  59  94 E6        29.77F
GRANITE FALLS  CLOUDY    59  58  94 NE8       29.76S
CANBY          CLOUDY    64  60  88 NE6       29.76S
MARSHALL       CLOUDY    61  58  90 E9        29.76R
REDWOOD FALLS  MOCLDY    60  57  89 E5        29.75R
OLIVIA         CLOUDY    55  54  94 NE8       29.75S
PIPESTONE      CLOUDY    63  61  94 E7        29.74S FOG
WINDOM         HVY RAIN  63  61  94 CALM      29.74S
WORTHINGTON    LGT RAIN  62  61  96 SW9       29.74R
JACKSON        RAIN      64  61  88 CALM      29.74S
TRACY          LGT RAIN  61  60  97 NE5       29.76R
SLAYTON        LGT RAIN  61  61 100 N7        29.75S VSB 3/4
$$
MNZ065>067-074>077-082>085-091>093-281100-
   South Central Minnesota

CITY           SKY/WX    TMP DP  RH WIND       PRES   REMARKS
MANKATO        CLOUDY    63  59  88 NE9       29.75R
NEW ULM        CLOUDY    61  59  94 NE17      29.74S
ST JAMES       CLOUDY    57  55  94 NE7       29.74F FOG
FAIRMONT       CLOUDY    64  61  88 CALM      29.73S
GLENCOE        CLOUDY    60  61 100 NE3       29.76S
FARIBAULT      CLOUDY    61  61 100 N3        29.74F
OWATONNA       DRIZZLE   63  61  94 CALM      29.74S
WASECA         MOCLDY    59  57  94 N6        29.75S FOG
ALBERT LEA     CLOUDY    63  63 100 NW3       29.72F FOG
$$
MNZ078>079-086>088-094>096-281100-
   Southeast Minnesota

CITY           SKY/WX    TMP DP  RH WIND       PRES   REMARKS
ROCHESTER      LGT RAIN  62  62 100 N13       29.74F VSB 1/2
RED WING       CLOUDY    63  61  94 W3        29.75R FOG
STANTON        LGT RAIN  61  60  95 E3        29.74S
DODGE CENTER   MOCLDY    61  61 100 NE8       29.75R FOG
WINONA         CLOUDY    64  64 100 CALM      29.73R
AUSTIN         CLOUDY    63  61  94 NE5       29.72S FOG
PRESTON        CLOUDY    63  61  94 N5        29.73F FOG
$$
ABBREVIATIONS USED IN REMARKS
   TC - TEMPERATURES IN CELSIUS
  WCI - WIND CHILL INDEX
   HX - HEAT INDEX
  VSB - VISIBILITY
$$




USA.gov is the U.S. government's official web portal to all federal, state and local government web resources and services.